Voltar ao catálogo

THORAD AGENA D DEB

AtivoLEO
NORAD 4614·DEBRIS·🇺🇸 United States

Lançado Apr 8, 1970 de Vandenberg Space Force Base

Loading…

Próximas Passagens (próximas 24 horas)

TLE

AtualizadoSource: Space-Track

Época: Sep 14, 2026, 21:50 UTC

1 04614U 70025S   26257.90979279  .00000345  00000-0  30038-3 0  9992
2 04614 100.1025 289.6794 0078107 231.6853 127.7263 13.92598151839048

Acompanhe THORAD AGENA D DEB em tempo real com AllMySat

Download on the App Store